Location: De Har
(53.3413°N, 6.6858°E)
Time: 08:46:57
(UTC+00:00)

USA 267 - Pass Details

Date: 22 April 2026
Orbit: 1101 x 1107 km, 123.0° (Epoch: 10 January)

Event Time Altitude Azimuth Distance (km) Brightness Sun altitude
Rises 03:05:41 0° 62° (ENE) 3,936 8.2 -10.3°
Reaches altitude 10° 03:08:11 10° 64° (ENE) 2,975 7.1 -10.0°
Maximum altitude 03:14:46 77° 151° (SSE) 1,136 3.4 -9.2°
Drops below altitude 10° 03:21:20 10° 238° (WSW) 2,964 4.8 -8.4°
Enters shadow 03:21:22 10° 238° (WSW) 2,972 4.8 -8.4°
